KF6ILA Weather Reports


Display with metric or nautical units.
time (UTC)temp
F
wind
direction
speed
MPH
gust
MPH
rain 1hr
in
rain 24hr
in
rain mn
in
humidity
%
barometer
mb
20260901075425 63 269 7.0 14.0 0.00 0.00 0.00 50 1016.4
20260901074928 63 265 9.0 14.0 0.00 0.00 0.00 51 1016.3
20260901074431 63 265 9.0 14.0 0.00 0.00 0.00 51 1016.4
20260901073934 63 264 9.0 13.0 0.00 0.00 0.00 51 1016.4
20260901073437 63 255 9.0 14.0 0.00 0.00 0.00 50 1016.4
20260901072940 64 258 10.0 17.0 0.00 0.00 0.00 50 1016.3
20260901072443 64 260 10.0 17.0 0.00 0.00 0.00 50 1016.4
20260901071946 64 257 12.0 17.0 0.00 0.00 0.00 47 1016.2
20260901071449 65 262 11.0 17.0 0.00 0.00 0.00 44 1016.2
20260901070952 65 262 11.0 16.0 0.00 0.00 0.00 43 1016.2
20260901070455 65 265 12.0 16.0 0.00 0.00 0.00 42 1016.2
20260901065501 65 265 11.0 16.0 0.00 0.00 0.00 41 1016.3
20260901064507 65 255 10.0 15.0 0.00 0.00 0.00 41 1016.3
20260901064010 65 260 10.0 14.0 0.00 0.00 0.00 42 1016.4
20260901063513 65 258 9.0 13.0 0.00 0.00 0.00 41 1016.4
20260901062519 65 254 9.0 13.0 0.00 0.00 0.00 40 1016.5
20260901061525 65 251 9.0 14.0 0.00 0.00 0.00 36 1016.5
20260901061028 65 254 9.0 14.0 0.00 0.00 0.00 34 1016.5
20260901060531 66 259 9.0 13.0 0.00 0.00 0.00 31 1016.5
20260901060034 66 257 10.0 13.0 0.00 0.00 0.00 27 1016.6
20260901055040 66 253 9.0 14.0 0.00 0.00 0.00 26 1016.5
20260901054543 66 252 9.0 14.0 0.00 0.00 0.00 27 1016.4
20260901054046 65 254 10.0 13.0 0.00 0.00 0.00 28 1016.4
20260901052555 64 246 8.0 11.0 0.00 0.00 0.00 36 1016.4
20260901052058 64 242 8.0 12.0 0.00 0.00 0.00 40 1016.4
20260901051602 64 244 9.0 12.0 0.00 0.00 0.00 41 1016.4
20260901051104 64 241 9.0 12.0 0.00 0.00 0.00 43 1016.4
20260901050607 64 245 9.0 13.0 0.00 0.00 0.00 44 1016.3
20260901050110 64 240 10.0 13.0 0.00 0.00 0.00 44 1016.3
20260901045613 64 237 9.0 12.0 0.00 0.00 0.00 41 1016.3
20260901044619 65 238 9.0 13.0 0.00 0.00 0.00 37 1016.3
20260901044122 65 244 9.0 12.0 0.00 0.00 0.00 37 1016.2
20260901043625 65 245 9.0 13.0 0.00 0.00 0.00 36 1016.3
20260901042631 65 241 11.0 14.0 0.00 0.00 0.00 39 1016.3
20260901042134 65 245 10.0 14.0 0.00 0.00 0.00 41 1016.2
20260901041637 65 242 10.0 14.0 0.00 0.00 0.00 42 1016.2
20260901041140 65 241 10.0 14.0 0.00 0.00 0.00 42 1016.2
20260901040643 65 240 10.0 16.0 0.00 0.00 0.00 43 1016.0
20260901040146 65 240 11.0 16.0 0.00 0.00 0.00 44 1015.9
20260901035649 65 240 11.0 15.0 0.00 0.00 0.00 47 1015.8
20260901035152 64 242 11.0 15.0 0.00 0.00 0.00 50 1015.7
20260901034655 64 242 11.0 15.0 0.00 0.00 0.00 55 1015.7
20260901034158 63 237 12.0 15.0 0.00 0.00 0.00 61 1015.5
20260901033701 63 237 12.0 15.0 0.00 0.00 0.00 65 1015.4
20260901032707 63 235 11.0 15.0 0.00 0.00 0.00 68 1015.3
20260901031713 64 235 11.0 16.0 0.00 0.00 0.00 67 1015.1
20260901031216 64 240 11.0 16.0 0.00 0.00 0.00 66 1015.1
20260901030719 64 239 11.0 16.0 0.00 0.00 0.00 66 1015.1
20260901030222 64 245 12.0 17.0 0.00 0.00 0.00 66 1015.0
20260901025228 65 242 12.0 17.0 0.00 0.00 0.00 64 1015.1
20260901024731 65 242 13.0 19.0 0.00 0.00 0.00 64 1014.9
20260901023240 66 244 13.0 19.0 0.00 0.00 0.00 62 1014.7
20260901021749 67 258 12.0 19.0 0.00 0.00 0.00 60 1014.6
20260901021252 67 261 14.0 19.0 0.00 0.00 0.00 60 1014.4
20260901020258 68 254 14.0 18.0 0.00 0.00 0.00 57 1015.2
20260901015801 69 252 10.0 17.0 0.00 0.00 0.00 57 1015.1
20260901015305 69 262 11.0 17.0 0.00 0.00 0.00 56 1015.0
20260901014310 70 254 13.0 22.0 0.00 0.00 0.00 53 1015.0
20260901013316 71 260 12.0 20.0 0.00 0.00 0.00 51 1015.0
20260901012322 72 259 15.0 20.0 0.00 0.00 0.00 50 1015.1
20260901010831 73 262 10.0 19.0 0.00 0.00 0.00 50 1015.2
20260901010334 73 262 14.0 19.0 0.00 0.00 0.00 49 1015.1
20260901005340 74 258 13.0 19.0 0.00 0.00 0.00 49 1015.1
20260901003849 75 270 8.0 20.0 0.00 0.00 0.00 49 1015.3
20260901003352 75 254 10.0 22.0 0.00 0.00 0.00 49 1015.3
20260901002855 75 261 15.0 22.0 0.00 0.00 0.00 48 1015.3
20260901002358 76 268 13.0 22.0 0.00 0.00 0.00 48 1015.3
20260901001404 76 249 12.0 22.0 0.00 0.00 0.00 48 1015.4
20260901000907 76 280 13.0 21.0 0.00 0.00 0.00 48 1015.4
20260901000412 76 251 13.0 21.0 0.00 0.00 0.00 48 1015.6
20260831234919 77 264 14.0 22.0 0.00 0.00 0.00 46 1015.4
20260831234422 77 283 12.0 24.0 0.00 0.00 0.00 46 1015.6
20260831233428 78 278 13.0 26.0 0.00 0.00 0.00 46 1015.7
20260831232931 78 276 13.0 26.0 0.00 0.00 0.00 45 1015.4
20260831231937 78 269 12.0 22.0 0.00 0.00 0.00 45 1015.6
20260831230446 78 260 15.0 24.0 0.00 0.00 0.00 44 1015.7
20260831225949 79 275 13.0 21.0 0.00 0.00 0.00 44 1015.7
20260831224955 78 269 13.0 24.0 0.00 0.00 0.00 44 1015.7
20260831224458 79 267 13.0 21.0 0.00 0.00 0.00 44 1015.7
20260831224001 79 263 16.0 21.0 0.00 0.00 0.00 43 1015.8
20260831222510 80 271 12.0 22.0 0.00 0.00 0.00 43 1015.8
20260831221019 80 257 13.0 22.0 0.00 0.00 0.00 43 1015.8
20260831220522 80 287 12.0 23.0 0.00 0.00 0.00 43 1015.8
20260831215528 80 247 9.0 24.0 0.00 0.00 0.00 42 1015.8
20260831215031 80 257 10.0 24.0 0.00 0.00 0.00 41 1015.8
20260831214534 80 255 11.0 22.0 0.00 0.00 0.00 41 1015.7
20260831214037 81 267 15.0 23.0 0.00 0.00 0.00 40 1015.8
20260831213540 81 259 14.0 23.0 0.00 0.00 0.00 40 1015.9
20260831213043 81 251 12.0 21.0 0.00 0.00 0.00 39 1015.9
20260831212546 81 270 14.0 21.0 0.00 0.00 0.00 38 1016.1
20260831212049 81 260 13.0 20.0 0.00 0.00 0.00 37 1016.1
20260831210558 81 237 11.0 20.0 0.00 0.00 0.00 36 1016.4
20260831205604 81 256 11.0 22.0 0.00 0.00 0.00 35 1016.3
20260831204113 80 266 11.0 20.0 0.00 0.00 0.00 38 1016.4
20260831203616 81 225 14.0 20.0 0.00 0.00 0.00 37 1016.6
20260831202622 81 235 10.0 20.0 0.00 0.00 0.00 38 1016.6
20260831201131 80 206 9.0 20.0 0.00 0.00 0.00 39 1016.5
20260831200634 80 218 12.0 19.0 0.00 0.00 0.00 39 1016.6
20260831200137 80 238 10.0 19.0 0.00 0.00 0.00 40 1016.8
20260831195143 80 253 4.0 19.0 0.00 0.00 0.00 40 1016.8
20260831194646 81 223 11.0 19.0 0.00 0.00 0.00 39 1016.8
20260831194149 80 236 7.0 22.0 0.00 0.00 0.00 41 1016.9
20260831193652 80 239 9.0 22.0 0.00 0.00 0.00 41 1016.9
20260831193155 79 271 11.0 22.0 0.00 0.00 0.00 42 1016.9
20260831192201 79 222 14.0 20.0 0.00 0.00 0.00 42
20260831190710 79 217 14.0 22.0 0.00 0.00 0.00 37 1017.2
20260831185219 79 213 13.0 21.0 0.00 0.00 0.00 37 1017.1
20260831183728 78 211 9.0 20.0 0.00 0.00 0.00 38 1017.2
20260831183231 78 212 14.0 20.0 0.00 0.00 0.00 39 1017.2
20260831182237 78 229 7.0 20.0 0.00 0.00 0.00 36 1017.3
20260831180746 78 214 12.0 18.0 0.00 0.00 0.00 36 1017.1
20260831180249 79 211 11.0 16.0 0.00 0.00 0.00 35 1017.0
20260831175752 78 273 10.0 18.0 0.00 0.00 0.00 34 1017.1
20260831175255 78 250 8.0 18.0 0.00 0.00 0.00 34 1017.2
20260831174758 78 276 9.0 19.0 0.00 0.00 0.00 33 1017.1
20260831174301 78 269 11.0 19.0 0.00 0.00 0.00 34 1017.1
20260831173804 78 219 11.0 18.0 0.00 0.00 0.00 33 1016.2
20260831173307 78 246 6.0 16.0 0.00 0.00 0.00 34 1016.2
20260831172810 78 222 11.0 20.0 0.00 0.00 0.00 36 1016.3
20260831172313 77 237 6.0 20.0 0.00 0.00 0.00 33 1016.3
20260831171816 77 222 12.0 20.0 0.00 0.00 0.00 31 1016.2
20260831170325 76 259 9.0 16.0 0.00 0.00 0.00 30 1015.9
20260831165828 76 236 6.0 19.0 0.00 0.00 0.00 29 1015.9
20260831164834 76 265 11.0 17.0 0.00 0.00 0.00 27 1015.8
20260831164337 76 267 7.0 16.0 0.00 0.00 0.00 26 1015.8
20260831163840 75 266 10.0 16.0 0.00 0.00 0.00 26 1015.8
20260831163343 75 267 7.0 20.0 0.00 0.00 0.00 26 1015.9
20260831155904 74 256 8.0 17.0 0.00 0.00 0.00 23 1015.6
20260831155407 73 259 11.0 18.0 0.00 0.00 0.00 22 1015.4
20260831154413 72 270 13.0 20.0 0.00 0.00 0.00 23 1015.5
20260831153419 71 270 14.0 21.0 0.00 0.00 0.00 23 1015.4
20260831145940 69 260 14.0 22.0 0.00 0.00 0.00 25 1015.0
20260831145443 69 260 14.0 22.0 0.00 0.00 0.00 25 1014.9
20260831144449 68 259 15.0 22.0 0.00 0.00 0.00 25 1014.9
20260831143952 68 256 15.0 22.0 0.00 0.00 0.00 25 1014.9
20260831142958 67 256 15.0 21.0 0.00 0.00 0.00 26 1014.7
20260831142501 67 250 16.0 22.0 0.00 0.00 0.00 26 1014.7
20260831141011 66 254 13.0 21.0 0.00 0.00 0.00 28 1014.5
20260831140513 66 253 14.0 21.0 0.00 0.00 0.00 28 1014.5
20260831135519 65 251 16.0 21.0 0.00 0.00 0.00 28 1014.1
20260831134029 65 250 16.0 22.0 0.00 0.00 0.00 28 1014.6
20260831133532 65 250 14.0 21.0 0.00 0.00 0.00 28 1014.5
20260831133034 65 250 15.0 22.0 0.00 0.00 0.00 28 1014.5
20260831132537 65 252 16.0 22.0 0.00 0.00 0.00 28 1014.5
20260831132041 65 256 16.0 22.0 0.00 0.00 0.00 28 1014.5
20260831125556 66 255 17.0 22.0 0.00 0.00 0.00 27 1014.2
20260831125059 66 256 15.0 22.0 0.00 0.00 0.00 26 1014.2
20260831124105 66 252 16.0 24.0 0.00 0.00 0.00 26 1014.2
20260831123607 66 259 18.0 24.0 0.00 0.00 0.00 26 1014.2
20260831123111 66 254 17.0 24.0 0.00 0.00 0.00 26 1014.2
20260831122613 66 251 17.0 24.0 0.00 0.00 0.00 27 1014.0
20260831121619 66 253 17.0 24.0 0.00 0.00 0.00 26 1014.1
20260831120625 66 252 18.0 25.0 0.00 0.00 0.00 26 1013.9
20260831120129 66 253 17.0 25.0 0.00 0.00 0.00 26 1013.9
20260831115135 66 258 18.0 24.0 0.00 0.00 0.00 26 1014.0
20260831114638 66 256 16.0 24.0 0.00 0.00 0.00 26 1014.0
20260831113644 66 253 16.0 24.0 0.00 0.00 0.00 27 1014.0
20260831112649 66 261 14.0 23.0 0.00 0.00 0.00 27 1014.0
20260831112153 66 257 16.0 23.0 0.00 0.00 0.00 27 1014.0
20260831105708 66 256 19.0 24.0 0.00 0.00 0.00 27 1013.8
20260831104217 66 255 17.0 25.0 0.00 0.00 0.00 28 1014.0
20260831103720 66 258 15.0 24.0 0.00 0.00 0.00 29 1013.9
20260831102229 66 256 15.0 26.0 0.00 0.00 0.00 31 1014.0
20260831101235 66 257 17.0 23.0 0.00 0.00 0.00 33 1014.1
20260831100738 66 249 17.0 23.0 0.00 0.00 0.00 34 1014.0
20260831095744 66 248 16.0 24.0 0.00 0.00 0.00 35 1014.0
20260831095247 66 257 17.0 24.0 0.00 0.00 0.00 35 1014.0
20260831094750 66 258 16.0 24.0 0.00 0.00 0.00 36 1014.2
20260831094253 66 253 15.0 22.0 0.00 0.00 0.00 36 1014.2
20260831093259 66 256 15.0 23.0 0.00 0.00 0.00 36 1014.1
20260831092802 67 257 15.0 24.0 0.00 0.00 0.00 36 1014.1
20260831092306 67 258 13.0 26.0 0.00 0.00 0.00 36 1014.2
20260831091808 67 259 16.0 26.0 0.00 0.00 0.00 36 1014.2
20260831091311 67 258 15.0 21.0 0.00 0.00 0.00 35 1014.2
20260831090317 67 246 14.0 24.0 0.00 0.00 0.00 35 1014.3
20260831085323 67 254 14.0 22.0 0.00 0.00 0.00 36 1014.3
20260831084329 67 247 16.0 24.0 0.00 0.00 0.00 36 1014.4
20260831083832 67 252 18.0 24.0 0.00 0.00 0.00 37 1014.5
20260831083335 67 253 15.0 23.0 0.00 0.00 0.00 39 1014.4
20260831082341 67 253 17.0 24.0 0.00 0.00 0.00 39 1014.4
20260831081844 68 252 18.0 24.0 0.00 0.00 0.00 39 1014.6
20260831081347 68 245 17.0 22.0 0.00 0.00 0.00 40 1014.7
20260831080850 68 246 15.0 24.0 0.00 0.00 0.00 38 1014.7
20260831075856 68 245 14.0 23.0 0.00 0.00 0.00 40 1014.8